IGO6946 VISR-VOBL

Flight info

Callsign IGO6946
Flight time N/A
Altitude 35000
Route SGR W21 PANLA W23 BIKUX DCT PK DCT CHG J21 DPN/N0453F340 Q23 AKRIB/N0454F350 Z16 BULDI W19 BPL/N0389F250 J3 UPTAR/N0413F290 W20 TAMID/N0390F250 J3 HIA/N0453F350 Q21 LURGI/N0455F360 Q21 TELUV TELUV7E
Aircraft A21N/M-SDE2E3FGHIRWXY/LB1

Departure

Time 2026-04-29 04:54
Airport Sheikh ul Alam International Airport (VISR)

Arrival

Time N/A
Airport Kempegowda International Airport Bengaluru (VOBL)
Time Latitude Longitude Altitude Speed Heading
2026-04-29 04:43 34.00173 74.76100 5408 ft 0 kts 63°
2026-04-29 04:47 34.00173 74.76101 5408 ft 0 kts 63°
2026-04-29 04:48 34.00169 74.76091 5408 ft 2 kts 56°
2026-04-29 04:48 34.00161 74.76077 5408 ft 2 kts 58°
2026-04-29 04:48 34.00153 74.76061 5408 ft 2 kts 59°
2026-04-29 04:48 34.00148 74.76047 5408 ft 1 kts 89°
2026-04-29 04:49 34.00150 74.76032 5408 ft 1 kts 118°
2026-04-29 04:49 34.00159 74.76020 5408 ft 1 kts 149°
2026-04-29 04:49 34.00166 74.76016 5408 ft 1 kts 169°
2026-04-29 04:49 34.00173 74.76014 5408 ft 0 kts 160°
2026-04-29 04:51 34.00171 74.76015 5408 ft 0 kts 160°
2026-04-29 04:51 34.00160 74.76021 5408 ft 2 kts 154°
2026-04-29 04:51 34.00133 74.76035 5408 ft 5 kts 159°
2026-04-29 04:52 34.00090 74.76055 5409 ft 7 kts 159°
2026-04-29 04:52 34.00030 74.76080 5410 ft 10 kts 177°
2026-04-29 04:52 33.99957 74.76067 5413 ft 10 kts 190°
2026-04-29 04:52 33.99894 74.76057 5418 ft 7 kts 180°
2026-04-29 04:53 33.99847 74.76076 5422 ft 6 kts 147°
2026-04-29 04:53 33.99806 74.76118 5422 ft 13 kts 135°
2026-04-29 04:53 33.99559 74.76402 5421 ft 84 kts 135°
2026-04-29 04:53 33.98983 74.77083 5434 ft 144 kts 139°
2026-04-29 04:54 33.98139 74.78056 5521 ft 187 kts 135°
2026-04-29 04:54 33.97133 74.79092 6009 ft 193 kts 141°
2026-04-29 04:54 33.96062 74.80174 6383 ft 208 kts 138°
2026-04-29 04:54 33.95021 74.81393 7095 ft 210 kts 137°
2026-04-29 04:55 33.93728 74.82188 7501 ft 217 kts 174°
2026-04-29 04:55 33.92220 74.81920 7763 ft 226 kts 196°
2026-04-29 04:55 33.90642 74.81541 7998 ft 238 kts 184°
2026-04-29 04:55 33.88931 74.81531 8194 ft 254 kts 177°
2026-04-29 04:56 33.87103 74.81660 8423 ft 269 kts 175°
2026-04-29 04:56 33.85181 74.81830 8695 ft 284 kts 175°
2026-04-29 04:56 33.83157 74.82011 9126 ft 292 kts 175°
2026-04-29 04:56 33.81115 74.82188 9700 ft 294 kts 175°
2026-04-29 04:57 33.79091 74.82359 10287 ft 296 kts 175°
2026-04-29 04:57 33.76998 74.82536 10617 ft 307 kts 175°
2026-04-29 04:57 33.74806 74.82720 10868 ft 321 kts 175°
2026-04-29 04:57 33.72509 74.82914 11136 ft 334 kts 175°
2026-04-29 04:58 33.70156 74.83110 11580 ft 340 kts 175°
2026-04-29 04:58 33.67792 74.83390 12158 ft 341 kts 171°
2026-04-29 04:58 33.65456 74.83865 12760 ft 341 kts 168°
2026-04-29 04:58 33.63121 74.84422 13341 ft 342 kts 167°
2026-04-29 04:59 33.60808 74.84982 13913 ft 343 kts 167°
2026-04-29 04:59 33.58448 74.85555 14362 ft 347 kts 167°
2026-04-29 04:59 33.56065 74.86135 14744 ft 353 kts 168°
2026-04-29 04:59 33.53631 74.86727 15204 ft 356 kts 168°
2026-04-29 05:00 33.51207 74.87315 15669 ft 359 kts 168°
2026-04-29 05:00 33.48755 74.87910 16127 ft 361 kts 169°
2026-04-29 05:00 33.46268 74.88511 16511 ft 363 kts 169°
2026-04-29 05:00 33.43791 74.89108 16898 ft 365 kts 169°
2026-04-29 05:01 33.41310 74.89709 17272 ft 367 kts 169°
2026-04-29 05:01 33.38768 74.90326 17635 ft 370 kts 169°
2026-04-29 05:01 33.36298 74.91175 17983 ft 375 kts 161°
2026-04-29 05:01 33.33897 74.92440 18342 ft 379 kts 154°
2026-04-29 05:02 33.31622 74.94040 18695 ft 382 kts 150°
2026-04-29 05:02 33.29340 74.95760 19043 ft 385 kts 149°
2026-04-29 05:02 33.27087 74.97474 19351 ft 389 kts 149°
2026-04-29 05:02 33.24804 74.99205 19693 ft 392 kts 149°
2026-04-29 05:03 33.22490 75.00954 20040 ft 394 kts 149°
2026-04-29 05:03 33.20166 75.02706 20399 ft 396 kts 149°
2026-04-29 05:03 33.17830 75.04463 20782 ft 397 kts 149°
2026-04-29 05:03 33.15469 75.06238 21114 ft 400 kts 149°
2026-04-29 05:04 33.13131 75.08003 21428 ft 403 kts 149°
2026-04-29 05:04 33.10751 75.09808 21744 ft 406 kts 148°
2026-04-29 05:04 33.08353 75.11629 22040 ft 409 kts 149°
2026-04-29 05:04 33.05964 75.13438 22365 ft 411 kts 149°
2026-04-29 05:05 33.03521 75.15288 22694 ft 413 kts 148°
2026-04-29 05:05 33.01095 75.17123 23001 ft 416 kts 149°
2026-04-29 05:05 32.98643 75.18979 23310 ft 419 kts 148°
2026-04-29 05:05 32.96198 75.20827 23641 ft 420 kts 148°
2026-04-29 05:06 32.93719 75.22699 23975 ft 422 kts 148°
2026-04-29 05:06 32.91246 75.24564 24304 ft 423 kts 149°
2026-04-29 05:06 32.88752 75.26443 24587 ft 426 kts 148°
2026-04-29 05:06 32.86230 75.28333 24867 ft 428 kts 149°
2026-04-29 05:07 32.83733 75.30203 25137 ft 430 kts 149°
2026-04-29 05:07 32.81177 75.32121 25413 ft 432 kts 149°
2026-04-29 05:07 32.78644 75.34023 25690 ft 434 kts 149°
2026-04-29 05:07 32.76095 75.35938 25936 ft 436 kts 149°
2026-04-29 05:08 32.73494 75.37892 26171 ft 439 kts 149°
2026-04-29 05:08 32.70926 75.39819 26433 ft 440 kts 149°
2026-04-29 05:08 32.68330 75.41769 26707 ft 442 kts 149°
2026-04-29 05:08 32.65720 75.43726 26941 ft 444 kts 149°
2026-04-29 05:09 32.63127 75.45667 27153 ft 446 kts 149°
2026-04-29 05:09 32.60466 75.47636 27392 ft 447 kts 151°
2026-04-29 05:09 32.57765 75.49388 27598 ft 449 kts 155°
2026-04-29 05:09 32.54911 75.50914 27823 ft 449 kts 160°
2026-04-29 05:10 32.51981 75.52183 28051 ft 450 kts 162°
2026-04-29 05:10 32.49005 75.53371 28258 ft 452 kts 163°
2026-04-29 05:10 32.46016 75.54553 28434 ft 454 kts 163°
2026-04-29 05:10 32.43005 75.55756 28633 ft 456 kts 163°
2026-04-29 05:11 32.39991 75.56991 28871 ft 457 kts 162°
2026-04-29 05:11 32.37012 75.58225 29163 ft 456 kts 162°
2026-04-29 05:11 32.33999 75.59473 29464 ft 455 kts 162°
2026-04-29 05:11 32.31033 75.60703 29738 ft 454 kts 162°
2026-04-29 05:12 32.28024 75.61949 29973 ft 455 kts 163°
2026-04-29 05:12 32.25066 75.63171 30201 ft 455 kts 162°
2026-04-29 05:12 32.22041 75.64421 30443 ft 455 kts 163°
2026-04-29 05:12 32.19060 75.65656 30670 ft 455 kts 163°
2026-04-29 05:13 32.16098 75.66892 30875 ft 456 kts 163°
2026-04-29 05:13 32.13109 75.68137 31102 ft 455 kts 163°
2026-04-29 05:13 32.10104 75.69386 31330 ft 455 kts 163°
2026-04-29 05:13 32.07111 75.70626 31539 ft 455 kts 163°
2026-04-29 05:14 32.04154 75.71846 31747 ft 455 kts 163°
2026-04-29 05:14 32.01149 75.73081 31987 ft 454 kts 163°
2026-04-29 05:14 31.98132 75.74324 32199 ft 454 kts 163°
2026-04-29 05:14 31.95165 75.75543 32370 ft 455 kts 164°
2026-04-29 05:15 31.92170 75.76771 32546 ft 455 kts 164°
2026-04-29 05:15 31.86170 75.79224 32710 ft 460 kts 164°
2026-04-29 05:15 31.83119 75.80466 32843 ft 461 kts 164°
2026-04-29 05:16 31.80081 75.81706 33015 ft 462 kts 164°
2026-04-29 05:16 31.77034 75.82950 33172 ft 462 kts 164°
2026-04-29 05:16 31.73947 75.84208 33318 ft 462 kts 164°
2026-04-29 05:16 31.70904 75.85448 33452 ft 463 kts 164°
2026-04-29 05:17 31.67814 75.86706 33547 ft 464 kts 164°
2026-04-29 05:17 31.61627 75.89226 33707 ft 467 kts 164°
2026-04-29 05:18 31.55432 75.91748 33909 ft 469 kts 164°
2026-04-29 05:18 31.49204 75.94279 34078 ft 472 kts 164°
2026-04-29 05:19 31.42929 75.96825 34240 ft 474 kts 165°
2026-04-29 05:19 31.39762 75.98109 34347 ft 474 kts 164°
2026-04-29 05:19 31.36638 75.99374 34437 ft 475 kts 165°
2026-04-29 05:20 31.30300 76.01936 34566 ft 478 kts 165°
2026-04-29 05:20 31.23930 76.04511 34725 ft 479 kts 165°
2026-04-29 05:21 31.17637 76.07047 34755 ft 481 kts 165°
2026-04-29 05:21 31.11282 76.09608 34753 ft 481 kts 165°
2026-04-29 05:22 31.04949 76.12155 34754 ft 482 kts 165°
2026-04-29 05:22 30.98615 76.14700 34745 ft 482 kts 165°
2026-04-29 05:23 30.92259 76.17249 34747 ft 482 kts 165°
2026-04-29 05:23 30.85891 76.19795 34741 ft 483 kts 165°
2026-04-29 05:24 30.79470 76.22353 34742 ft 483 kts 165°
2026-04-29 05:24 30.73068 76.24906 34741 ft 483 kts 165°
2026-04-29 05:25 30.66682 76.27453 34748 ft 483 kts 165°
2026-04-29 05:25 30.60270 76.30006 34749 ft 483 kts 165°
2026-04-29 05:26 30.53905 76.32536 34751 ft 483 kts 165°
2026-04-29 05:26 30.47481 76.35088 34745 ft 483 kts 165°
2026-04-29 05:27 30.41080 76.37627 34742 ft 483 kts 165°
2026-04-29 05:27 30.31554 76.41399 34740 ft 482 kts 165°
2026-04-29 05:28 30.25184 76.43918 34740 ft 483 kts 165°
2026-04-29 05:28 30.18814 76.46430 34734 ft 483 kts 165°
2026-04-29 05:29 30.12458 76.48937 34730 ft 483 kts 164°
2026-04-29 05:29 30.06135 76.51425 34730 ft 482 kts 165°
2026-04-29 05:30 29.99795 76.53920 34738 ft 482 kts 165°
2026-04-29 05:30 29.93444 76.56413 34731 ft 482 kts 164°
2026-04-29 05:31 29.87047 76.58917 34732 ft 482 kts 165°
2026-04-29 05:31 29.80570 76.61444 34739 ft 483 kts 165°
2026-04-29 05:32 29.74161 76.63944 34723 ft 483 kts 164°
2026-04-29 05:32 29.67732 76.66467 34721 ft 483 kts 165°
2026-04-29 05:33 29.61301 76.69004 34724 ft 484 kts 165°
2026-04-29 05:33 29.54948 76.71491 34723 ft 484 kts 165°
2026-04-29 05:34 29.48577 76.73972 34721 ft 484 kts 165°
2026-04-29 05:34 29.42172 76.76461 34716 ft 484 kts 165°
2026-04-29 05:35 29.35801 76.78932 34717 ft 485 kts 165°
2026-04-29 05:35 29.29426 76.81400 34718 ft 485 kts 165°
2026-04-29 05:36 29.26200 76.82649 34563 ft 486 kts 165°
2026-04-29 05:36 29.22983 76.83893 34786 ft 487 kts 165°
2026-04-29 05:36 29.19767 76.85136 34577 ft 486 kts 165°
2026-04-29 05:36 29.16590 76.86362 34677 ft 487 kts 165°